Terminal Aerodrome Forecast
Issued by NWS Tulsa, OK

Home | Current Version | Previous Version | Text Only | Print | Product List | Glossary On
Versions: 1 2 3 4 5 6 7 8 9 10 11 12
000
FTUS44 KTSA 251100
TAFTUL
TAF
KTUL 251120Z 2512/2612 16007KT P6SM FEW250
     FM251500 19014G20KT P6SM FEW050
     FM260100 17010KT P6SM FEW250=

USA.gov is the U.S. government's official web portal to all federal, state and local government web resources and services.